Showing default

VIREON-2, 68421

Orbit data source: Space-Track

VIREON-2, 68421 is a UK payload satellite in SSO that was launched on Mon, 30 Mar 2026 UTC via an FALCON 9 launch vehicle from the Air Force Western Test Range (AFWTR). Payload-class satellites include a variety of spacecraft equipped with specific instruments for various scientific and technological missions. These include communications satellites like Starlink; space stations such as the ISS; scientific satellites like the Hubble; Earth observation satellites from companies like Planet Labs, Umbra, and HawkEye 360; GPS; miniature CubeSats for education and research; and military/defense satellites.

Loading next visibility...
Identifier
68421, 2026-067F
Orbit
SSO
Country
Flag of UKUK
Related business
None
Manufacturer
Unknown
Mission
Operational spacecraft
Bus & Motor
Unknown
Mass
Unknown
Launch date (UTC)
2026-03-30 (1 month ago)
Launch vehicle
FALCON 9
Launch site
Air Force Western Test Range (AFWTR)
Object type
Payload
Rocket body
Debris
Shape & HBR
Unknown shape, 1.1 m
Radar Cross Section
RCS unknown

Expand to show TLE details & history
Last TLE update: 12 hours ago

TLE from 12 hours ago
0 VIREON-2
1 68421U 26067F   26127.13150534  .00003547  00000-0  17517-3 0  9995
2 68421  97.4498  86.2159 0002613  72.4608 287.6912 15.18518099  5719
Epoch: 2026-05-07T03:09Z
TLE epoch observation values (Epoch: 2026-05-07T03:09:22.061Z)
Latitude
0.00003°
Longitude
173.89193°
Altitude
512.859 km
Speed
7.608 km/s
True Right ascension
05h 44m 51s
True Declination
0° 00' 00"
Sunlit
Object was in daylight at epoch
Visualization orbit readout
Latitude
Unknown
Longitude
Unknown
Altitude
Unknown
Speed
Unknown
Apparent Right ascension
Unknown
Apparent Declination
Unknown
Sunlit
N/A
Visualization observer readout
Local Sidereal Time
23:12:38
Azimuth
Unknown
Elevation
Unknown
Doppler factor
Unknown
Orbital elements
Apogee altitude
509.087 km
Perigee altitude
505.489 km
Semi-major axis
6,885.425 km
Eccentricity
0.00026
Inclination
97.4498°
RAAN
86.2159°
Arg. of periapsis
72.4608°
True anomaly
287.66267°
Mean anomaly
287.6912°
Eccentric anomaly
287.67694°
Mean motion
3.79881 °/min
Orbital period
94.77 mins
BSTAR
0.00017517
Loading maneuver chart data...
Computing Atmospheric mass density...
Loading historical data...
Loading historical data...
Loading historical data...
Loading historical data...
Loading historical data...
Loading historical data...
Loading historical data...

Documentation

Showing up to 5 results
|